Regional Weather Roundup
Issued by NWS

Home | Current Version | Previous Version | Text Only | Print | Product List | Glossary On
Versions: 1 2 3 4 5 6 7 8 9 10 11 12 13 14 15 16 17 18 19 20 21 22 23 24 25 26 27 28 29 30 31 32 33 34 35 36 37 38 39 40 41 42 43 44 45 46 47 48 49 50
000
ASUS43 KDMX 171907
RWRIA

WEATHER ROUNDUP FOR IOWA
NATIONAL WEATHER SERVICE DES MOINES IA
200 PM CDT WED SEP 17 2014

NOTE: "FAIR" INDICATES FEW OR NO CLOUDS BELOW 12,000 FEET WITH NO
SIGNIFICANT WEATHER AND/OR OBSTRUCTIONS TO VISIBILITY.

* - THESE STATIONS ARE NOT NWS STATIONS...THUS NOT UNDER NWS
QUALITY CONTROL.  THEY ALSO DO NOT REPORT WEATHER SUCH
AS PRECIPITATION OR FOG.

IAZ001>003-012>014-020>022-031>034-043>046-172000-
   NORTHWEST IOWA

CITY           SKY/WX    TMP DP  RH WIND       PRES   REMARKS
CARROLL *      MOSUNNY   75  55  50 VRB6G12   29.93F
CHEROKEE *     SUNNY     75  55  50 SE3       29.92F
DENISON *      SUNNY     75  59  57 SE6       29.91F
LE MARS *      SUNNY     75  59  57 SW3       29.92F
ORANGE CITY *  SUNNY     77  57  50 SE3       29.92F
SHELDON *      SUNNY     75  59  57 VRB3      29.92F
SIOUX CITY     SUNNY     78  61  55 VRB6      29.91F HX  80
SPENCER        MOSUNNY   72  57  59 SE9       29.93F
STORM LAKE *   SUNNY     73  55  53 CALM      29.93F
$$

IAZ055>058-069>071-079>083-090>094-172000-
   SOUTHWEST IOWA

CITY           SKY/WX    TMP DP  RH WIND       PRES   REMARKS
ATLANTIC *     SUNNY     75  59  57 SE6       29.92F
AUDUBON *      SUNNY     75  55  50 E6        29.94F
CLARINDA *     MOSUNNY   75  63  64 SE8       29.94F
COUNCIL BLFS * SUNNY     75  64  69 SE6       29.91F
CRESTON *      PTSUNNY   72  61  68 VRB5      29.95S
HARLAN  *      MOSUNNY   75  61  60 CALM      29.96F
LAMONI         PTSUNNY   71  60  68 E6        29.95S
SHENANDOAH *   SUNNY     77  63  61 NE5G12    29.92F
$$

IAZ047>049-059>061-072>074-084-172000-
   CENTRAL IOWA

CITY           SKY/WX    TMP DP  RH WIND       PRES   REMARKS
AMES           SUNNY     72  57  59 VRB5      29.95F
ANKENY *       MOSUNNY   72  59  64 S8        29.95F
CHARITON *     MOSUNNY   73  57  56 SE9       29.95F
DES MOINES     MOSUNNY   75  56  51 E5        29.95F
GRINNELL*      CLOUDY    70  55  60 CALM      29.97F
KNOXVILLE *    MOSUNNY   72  57  60 E6        29.94F
MARSHALLTOWN   SUNNY     69  52  54 SE5       29.96F
PELLA *        PTSUNNY   73  57  56 E3        29.96F
PERRY *        PTSUNNY   72  55  56 CALM      29.94F
$$

IAZ004>006-015-016-023>025-035-036-172000-
   NORTH CENTRAL IOWA

CITY           SKY/WX    TMP DP  RH WIND       PRES   REMARKS
ALGONA *       SUNNY     73  54  49 CALM      29.94F
CLARION *        N/A     73  52  46 VRB5      29.95F
ESTHERVILLE    SUNNY     72  57  59 CALM      29.94S
FORT DODGE *   SUNNY     73  52  46 S5        29.95F
MASON CITY     SUNNY     72  52  49 SE9       29.96F
FOREST CITY *  SUNNY     72  52  49 CALM      29.95F
IOWA FALLS *     N/A     72  50  46 CALM      29.97F
$$

IAZ007>011-017>019-026>030-037>042-050>054-066-172000-
   NORTHEAST IOWA

CITY           SKY/WX    TMP DP  RH WIND       PRES   REMARKS
CEDAR RAPIDS   CLOUDY    69  57  65 SE9       29.97F
CHARLES CITY * SUNNY     68  48  49 CALM      29.98S
CLINTON *      PTSUNNY   66  52  59 SW3       30.02F
DECORAH *      SUNNY     68  50  52 S7        29.97F
DUBUQUE        PTSUNNY   65  50  58 S8        30.00F
MONTICELLO *   PTSUNNY   66  52  59 CALM      29.99S
OELWEIN *      SUNNY     70  50  49 VRB5      29.98F
WATERLOO       SUNNY     70  51  51 VRB5      29.96F
$$

IAZ064-065-067-068-078-172000-
   EAST CENTRAL IOWA

CITY           SKY/WX    TMP DP  RH WIND       PRES   REMARKS
DAVENPORT      MOSUNNY   68  52  56 MISG      30.00F
IOWA CITY      SUNNY     68  57  68 S7        29.99F
MT. PLEASANT * CLOUDY    70  54  56 S7        29.98F
MUSCATINE *    MOSUNNY   70  54  56 S8G14     29.99F
QUAD CITIES    CLOUDY    67  52  58 VRB5      29.99F
$$

IAZ062-063-075>077-085>089-095>099-172000-
   SOUTHEAST IOWA

CITY           SKY/WX    TMP DP  RH WIND       PRES   REMARKS
BURLINGTON     CLOUDY    66  55  67 SE6       29.99F
FAIRFIELD *    MOSUNNY   68  57  68 SE9       29.97F
FORT MADISON * CLOUDY    70  55  60 S5        29.99F
KEOKUK *       CLOUDY    66  57  72 CALM      29.97F
OSKALOOSA *    PTSUNNY   70  57  64 S5        29.97S
CENTERVILLE *  MOSUNNY   68  61  77 NE5       29.97F
OTTUMWA        MOSUNNY   69  56  62 SE6       29.96F
WASHINGTON *   CLOUDY    72  57  60 S8        29.98F
$$

ABBREVIATIONS USED IN REMARKS
   TC - TEMPERATURES IN CELSIUS
  WCI - WIND CHILL INDEX
   HX - HEAT INDEX
  VSB - VISIBILITY
$$



USA.gov is the U.S. government's official web portal to all federal, state and local government web resources and services.